Simultaneous Nadir Overpasses (SNOs) Predictions

Prediction of SNOs between LANDSAT-8 and NOAA-19 Satellite Orbit:

Table of predicted SNOs for the next 14.0 days since TLE Epoch: 10/3/2014
Index Date (LANDSAT-8) Time (LANDSAT-8) Lat,Lon (LANDSAT-8) SZA (LANDSAT-8 ) Date (NOAA-19) Time (NOAA-19) Lat,Lon (NOAA-19) SZA (NOAA-19 ) Distance(km) Time Diff (sec)
1 10/03/2014 16:14:08 -72.33, 116.38 103.65 10/03/2014 16:13:12 -72.34, 116.35 103.64 1.72 56
2 10/03/2014 17:03:35 72.23, -76.15 76.27 10/03/2014 17:04:18 72.23, -76.20 76.27 1.98 43
3 10/05/2014 20:58:16 -72.87, 46.32 102.24 10/05/2014 20:57:08 -72.93, 44.19 102.21 70.06 68
4 10/05/2014 21:47:53 72.25,-147.20 77.13 10/05/2014 21:48:03 72.27,-147.19 77.16 2.51 10
5 10/05/2014 22:37:36 -71.44, 19.04 103.69 10/05/2014 22:38:42 -71.45, 21.65 103.62 92.50 66
6 10/08/2014 02:32:10 72.29, 141.80 78.02 10/08/2014 02:31:48 72.32, 141.80 78.05 3.21 22
7 10/08/2014 03:21:39 -72.23, -50.67 102.03 10/08/2014 03:22:41 -72.21, -50.71 102.04 2.72 62
8 10/10/2014 07:16:26 72.37, 70.87 78.94 10/10/2014 07:15:33 72.38, 70.77 78.95 3.50 53
9 10/10/2014 08:05:56 -72.26,-121.70 101.17 10/10/2014 08:06:26 -72.26,-121.73 101.15 1.40 30
10 10/12/2014 12:00:35 72.79, 0.60 80.21 10/12/2014 11:59:26 72.85, -1.12 80.24 56.99 69
11 10/12/2014 12:50:12 -72.31, 167.33 100.28 10/12/2014 12:50:11 -72.32, 167.25 100.27 3.17 1
12 10/14/2014 17:34:28 -72.35, 96.33 99.42 10/14/2014 17:33:55 -72.34, 96.31 99.43 1.15 33
13 10/14/2014 18:23:54 72.25, -96.21 80.49 10/14/2014 18:25:00 72.25, -96.29 80.51 2.87 66
14 10/16/2014 22:18:43 -72.36, 25.29 98.59 10/16/2014 22:17:38 -72.36, 25.37 98.60 2.72 65
15 10/16/2014 23:08:10 72.26,-167.25 81.32 10/16/2014 23:08:44 72.29,-167.27 81.35 3.19 34




NCC Satellite Simultaneous Nadir Overpasses (SNOs) Prediction Service
